FW1394 Weather Reports


Display with metric or nautical units.
time (UTC)temp
F
wind
direction
speed
MPH
gust
MPH
rain 1hr
in
rain 24hr
in
rain mn
in
humidity
%
barometer
mb
20260502220050 84 0 0.0 0.0 0.00 0.00 0.00 34 1015.5
20260502215541 85 0 0.0 0.0 0.00 0.00 0.00 33 1015.5
20260502215042 85 0 0.0 0.0 0.00 0.00 0.00 34 1015.6
20260502214550 85 0 0.0 0.0 0.00 0.00 0.00 34 1015.5
20260502214040 85 0 0.0 0.0 0.00 0.00 0.00 35 1015.7
20260502213540 84 0 0.0 0.0 0.00 0.00 0.00 34 1015.8
20260502213054 84 0 0.0 0.0 0.00 0.00 0.00 35 1015.9
20260502212541 84 0 0.0 0.0 0.00 0.00 0.00 35 1015.8
20260502212040 84 0 0.0 0.0 0.00 0.00 0.00 35 1015.9
20260502211551 84 0 0.0 0.0 0.00 0.00 0.00 35 1016.0
20260502211038 84 0 0.0 0.0 0.00 0.00 0.00 37 1016.1
20260502210538 84 0 0.0 0.0 0.00 0.00 0.00 34 1016.1
20260502210051 84 0 0.0 0.0 0.00 0.00 0.00 35 1016.1
20260502205541 84 0 0.0 0.0 0.00 0.00 0.00 35 1016.2
20260502205040 84 0 0.0 0.0 0.00 0.00 0.00 36 1016.3
20260502204553 83 0 0.0 0.0 0.00 0.00 0.00 38 1016.2
20260502204041 84 0 0.0 0.0 0.00 0.00 0.00 36 1016.3
20260502203541 83 0 0.0 0.0 0.00 0.00 0.00 37 1016.3
20260502203054 83 0 0.0 0.0 0.00 0.00 0.00 39 1016.3
20260502202540 82 0 0.0 0.0 0.00 0.00 0.00 38 1016.3
20260502202040 82 0 0.0 0.0 0.00 0.00 0.00 40 1016.3
20260502201548 81 0 0.0 0.0 0.00 0.00 0.00 39 1016.3
20260502201042 81 0 0.0 0.0 0.00 0.00 0.00 40 1016.5
20260502200538 80 0 0.0 0.0 0.00 0.00 0.00 39 1016.5
20260502200055 80 0 0.0 0.0 0.00 0.00 0.00 39 1016.5
20260502195541 81 0 0.0 0.0 0.00 0.00 0.00 40 1016.6
20260502195040 81 0 0.0 0.0 0.00 0.00 0.00 40 1016.5
20260502194606 81 0 0.0 0.0 0.00 0.00 0.00 40 1016.6
20260502194042 80 0 0.0 0.0 0.00 0.00 0.00 40 1016.5
20260502193540 79 0 0.0 0.0 0.00 0.00 0.00 41 1016.5
20260502193108 79 0 0.0 0.0 0.00 0.00 0.00 44 1016.5
20260502192542 78 0 0.0 0.0 0.00 0.00 0.00 42 1016.6
20260502192040 77 0 0.0 0.0 0.00 0.00 0.00 43 1016.7
20260502191601 76 0 0.0 0.0 0.00 0.00 0.00 46 1016.6
20260502191041 75 0 0.0 0.0 0.00 0.00 0.00 47 1016.7
20260502190541 74 0 0.0 0.0 0.00 0.00 0.00 49 1016.7
20260502190052 73 0 0.0 0.0 0.00 0.00 0.00 50 1016.9
20260502185541 72 0 0.0 0.0 0.00 0.00 0.00 51 1017.1
20260502185040 71 0 0.0 0.0 0.00 0.00 0.00 52 1017.1
20260502184559 70 0 0.0 0.0 0.00 0.00 0.00 56 1017.1
20260502184040 69 0 0.0 0.0 0.00 0.00 0.00 60 1017.1
20260502183540 67 0 0.0 0.0 0.00 0.00 0.00 59 1017.1
20260502183047 67 0 0.0 0.0 0.00 0.00 0.00 61 1017.2
20260502182543 66 0 0.0 0.0 0.00 0.00 0.00 62 1017.2
20260502182040 66 0 0.0 0.0 0.00 0.00 0.00 62 1017.3
20260502181549 65 0 0.0 0.0 0.00 0.00 0.00 64 1017.2
20260502181041 64 0 0.0 0.0 0.00 0.00 0.00 66 1017.3
20260502180540 63 0 0.0 0.0 0.00 0.00 0.00 68 1017.2
20260502164041 60 0 0.0 0.0 0.00 0.00 0.00 75 1017.5
20260502163540 59 0 0.0 0.0 0.00 0.00 0.00 76 1017.7
20260502163052 59 0 0.0 0.0 0.00 0.00 0.00 77 1017.8
20260502162543 59 0 0.0 0.0 0.00 0.00 0.00 77 1017.7
20260502162041 59 0 0.0 0.0 0.00 0.00 0.00 78 1017.6
20260502161617 58 0 0.0 0.0 0.00 0.00 0.00 78 1017.6
20260502161041 58 0 0.0 0.0 0.00 0.00 0.00 79 1017.6
20260502160541 58 0 0.0 0.0 0.00 0.00 0.00 80 1017.5
20260502160105 58 0 0.0 0.0 0.00 0.00 0.00 80 1017.5
20260502152042 54 0 0.0 0.0 0.00 0.00 0.00 88 1017.1
20260502151552 53 0 0.0 0.0 0.00 0.00 0.00 88 1017.2
20260502151041 53 0 0.0 0.0 0.00 0.00 0.00 88 1017.3
20260502150541 53 0 0.0 0.0 0.00 0.00 0.00 88 1017.3
20260502130541 49 0 0.0 0.0 0.00 0.00 0.00 89 1016.8
20260502130114 49 0 0.0 0.0 0.00 0.00 0.00 89 1016.8
20260502123541 49 0 0.0 0.0 0.00 0.00 0.00 89 1016.5
20260502123120 49 0 0.0 0.0 0.00 0.00 0.00 88 1016.4
20260502122543 49 0 0.0 0.0 0.00 0.00 0.00 88 1016.4
20260502122040 49 0 0.0 0.0 0.00 0.00 0.00 88 1016.4
20260502121551 49 0 0.0 0.0 0.00 0.00 0.00 88 1016.4
20260502121042 49 0 0.0 0.0 0.00 0.00 0.00 88 1016.3
20260502120539 49 0 0.0 0.0 0.00 0.00 0.00 88 1016.3
20260502120117 49 0 0.0 0.0 0.00 0.00 0.00 88 1016.3
20260502115541 49 0 0.0 0.0 0.00 0.00 0.00 88 1016.4
20260502115041 49 0 0.0 0.0 0.00 0.00 0.00 88 1016.3
20260502114557 49 0 0.0 0.0 0.00 0.00 0.00 88 1016.4
20260502114042 49 0 0.0 0.0 0.00 0.00 0.00 88 1016.3
20260502113542 49 0 0.0 0.0 0.00 0.00 0.00 88 1016.3
20260502113054 49 0 0.0 0.0 0.00 0.00 0.00 87 1016.2
20260502112540 49 0 0.0 0.0 0.00 0.00 0.00 88 1016.2
20260502112040 49 0 0.0 0.0 0.00 0.00 0.00 88 1016.2
20260502111554 49 0 0.0 0.0 0.00 0.00 0.00 87 1016.1
20260502111044 49 0 0.0 0.0 0.00 0.00 0.00 87 1016.1
20260502110540 49 0 0.0 0.0 0.00 0.00 0.00 87 1016.0
20260502110052 49 0 0.0 0.0 0.00 0.00 0.00 87 1016.1
20260502105540 49 0 0.0 0.0 0.00 0.00 0.00 87 1016.1
20260502105042 49 0 0.0 0.0 0.00 0.00 0.00 87 1016.1
20260502104550 49 0 0.0 0.0 0.00 0.00 0.00 87 1016.0
20260502104041 49 0 0.0 0.0 0.00 0.00 0.00 87 1016.1
20260502103541 49 0 0.0 0.0 0.00 0.00 0.00 86 1016.0
20260502103048 49 0 0.0 0.0 0.00 0.00 0.00 86 1016.0
20260502102544 49 0 0.0 0.0 0.00 0.00 0.00 86 1016.0
20260502102041 49 0 0.0 0.0 0.00 0.00 0.00 86 1016.0
20260502101554 50 0 0.0 0.0 0.00 0.00 0.00 86 1016.0
20260502101043 50 0 0.0 0.0 0.00 0.00 0.00 86 1016.0
20260502100540 50 0 0.0 0.0 0.00 0.00 0.00 86 1016.0
20260502091040 50 0 0.0 0.0 0.00 0.00 0.00 84 1015.9
20260502090540 50 0 0.0 0.0 0.00 0.00 0.00 85 1015.9
20260502071040 53 0 0.0 0.0 0.00 0.00 0.00 81 1015.8
20260502070543 53 0 0.0 0.0 0.00 0.00 0.00 81 1015.7
20260502070048 53 0 0.0 0.0 0.00 0.00 0.00 80 1015.6
20260502065542 53 0 0.0 0.0 0.00 0.00 0.00 80 1015.5
20260502065042 53 0 0.0 0.0 0.00 0.00 0.00 80 1015.7
20260502064551 53 0 0.0 0.0 0.00 0.00 0.00 80 1015.6
20260502064043 53 0 0.0 0.0 0.00 0.00 0.00 80 1015.6
20260502063542 53 0 0.0 0.0 0.00 0.00 0.00 80 1015.6
20260502063058 54 0 0.0 0.0 0.00 0.00 0.00 80 1015.7
20260502062543 54 0 0.0 0.0 0.00 0.00 0.00 80 1015.6
20260502062045 54 0 0.0 0.0 0.00 0.00 0.00 79 1015.5
20260502061548 54 0 0.0 0.0 0.00 0.00 0.00 79 1015.5
20260502061043 54 0 0.0 0.0 0.00 0.00 0.00 79 1015.6
20260502060544 54 0 0.0 0.0 0.00 0.00 0.00 79 1015.5
20260502060058 54 0 0.0 0.0 0.00 0.00 0.00 79 1015.4
20260502055541 55 0 0.0 0.0 0.00 0.00 0.00 78 1015.4
20260502055040 55 0 0.0 0.0 0.00 0.00 0.00 78 1015.4
20260502054552 55 0 0.0 0.0 0.00 0.00 0.00 78 1015.5
20260502054040 55 0 0.0 0.0 0.00 0.00 0.00 78 1015.5
20260502053540 55 0 0.0 0.0 0.00 0.00 0.00 78 1015.4
20260502053052 55 0 0.0 0.0 0.00 0.00 0.00 77 1015.4
20260502052540 55 0 0.0 0.0 0.00 0.00 0.00 77 1015.4
20260502052041 55 0 0.0 0.0 0.00 0.00 0.00 78 1015.5
20260502051552 55 0 0.0 0.0 0.00 0.00 0.00 78 1015.5
20260502051043 55 0 0.0 0.0 0.00 0.00 0.00 78 1015.5
20260502050543 55 0 0.0 0.0 0.00 0.00 0.00 77 1015.3
20260502050051 55 0 0.0 0.0 0.00 0.00 0.00 77 1015.2
20260502045542 55 0 0.0 0.0 0.00 0.00 0.00 77 1015.3
20260502045041 56 0 0.0 0.0 0.00 0.00 0.00 77 1015.4
20260502044550 56 0 0.0 0.0 0.00 0.00 0.00 77 1015.3
20260502044044 56 0 0.0 0.0 0.00 0.00 0.00 77 1015.3
20260502043541 56 0 0.0 0.0 0.00 0.00 0.00 76 1015.4
20260502043103 56 0 0.0 0.0 0.00 0.00 0.00 76 1015.4
20260502042546 56 0 0.0 0.0 0.00 0.00 0.00 75 1015.5
20260502042042 56 0 0.0 0.0 0.00 0.00 0.00 75 1015.6
20260502041555 56 0 0.0 0.0 0.00 0.00 0.00 74 1015.5
20260502041042 56 0 0.0 0.0 0.00 0.00 0.00 74 1015.6
20260502040543 56 0 0.0 0.0 0.00 0.00 0.00 74 1015.6
20260502040105 56 0 0.0 0.0 0.00 0.00 0.00 75 1015.5
20260502035542 57 0 0.0 0.0 0.00 0.00 0.00 74 1015.2
20260502035044 57 0 0.0 0.0 0.00 0.00 0.00 74 1015.0
20260502034555 57 0 0.0 0.0 0.00 0.00 0.00 73 1014.8
20260502034043 58 0 0.0 0.0 0.00 0.00 0.00 72 1014.7
20260502033544 58 0 0.0 0.0 0.00 0.00 0.00 71 1014.7
20260502033049 58 0 0.0 0.0 0.00 0.00 0.00 71 1014.7
20260502032543 58 0 0.0 0.0 0.00 0.00 0.00 71 1014.6
20260502032044 59 0 0.0 0.0 0.00 0.00 0.00 71 1014.6
20260502031550 59 0 0.0 0.0 0.00 0.00 0.00 70 1014.6
20260502031043 59 0 0.0 0.0 0.00 0.00 0.00 69 1014.5
20260502030542 59 0 0.0 0.0 0.00 0.00 0.00 68 1014.4
20260502030053 60 0 0.0 0.0 0.00 0.00 0.00 68 1014.5
20260502025545 60 0 0.0 0.0 0.00 0.00 0.00 67 1014.5
20260502025043 60 0 0.0 0.0 0.00 0.00 0.00 67 1014.5
20260502024607 60 0 0.0 0.0 0.00 0.00 0.00 67 1014.5
20260502024043 60 0 0.0 0.0 0.00 0.00 0.00 67 1014.5
20260502023544 61 0 0.0 0.0 0.00 0.00 0.00 66 1014.5
20260502023050 61 0 0.0 0.0 0.00 0.00 0.00 65 1014.4
20260502022542 61 0 0.0 0.0 0.00 0.00 0.00 65 1014.4
20260502022041 61 0 0.0 0.0 0.00 0.00 0.00 64 1014.5
20260502021558 61 0 0.0 0.0 0.00 0.00 0.00 64 1014.5
20260502021043 62 0 0.0 0.0 0.00 0.00 0.00 64 1014.5
20260502020541 62 0 0.0 0.0 0.00 0.00 0.00 64 1014.4
20260502020051 62 0 0.0 0.0 0.00 0.00 0.00 64 1014.3
20260502015543 62 0 0.0 0.0 0.00 0.00 0.00 63 1014.4
20260502015043 62 0 0.0 0.0 0.00 0.00 0.00 63 1014.4
20260502014553 62 0 0.0 0.0 0.00 0.00 0.00 63 1014.5
20260502014042 62 0 0.0 0.0 0.00 0.00 0.00 63 1014.4
20260502013542 62 0 0.0 0.0 0.00 0.00 0.00 61 1014.4
20260502013051 63 0 0.0 0.0 0.00 0.00 0.00 60 1014.5
20260502012542 63 0 0.0 0.0 0.00 0.00 0.00 60 1014.5
20260502012038 63 0 0.0 0.0 0.00 0.00 0.00 59 1014.5
20260502011551 63 0 0.0 0.0 0.00 0.00 0.00 59 1014.5
20260502011039 63 0 0.0 0.0 0.00 0.00 0.00 59 1014.5
20260502010542 63 0 0.0 0.0 0.00 0.00 0.00 59 1014.5
20260502010104 64 0 0.0 0.0 0.00 0.00 0.00 59 1014.5
20260502005539 64 0 0.0 0.0 0.00 0.00 0.00 59 1014.5
20260502005041 64 0 0.0 0.0 0.00 0.00 0.00 58 1014.5
20260502004559 65 0 0.0 0.0 0.00 0.00 0.00 57 1014.5
20260502004041 65 0 0.0 0.0 0.00 0.00 0.00 58 1014.5
20260502003540 66 0 0.0 0.0 0.00 0.00 0.00 57 1014.5
20260502003048 66 0 0.0 0.0 0.00 0.00 0.00 57 1014.6
20260502002541 67 0 0.0 0.0 0.00 0.00 0.00 57 1014.6
20260502002040 67 0 0.0 0.0 0.00 0.00 0.00 56 1014.7
20260502001547 68 0 0.0 0.0 0.00 0.00 0.00 56 1014.7
20260502001040 68 0 0.0 0.0 0.00 0.00 0.00 55 1014.7
20260502000539 69 0 0.0 0.0 0.00 0.00 0.00 53 1014.7
20260502000044 70 0 0.0 0.0 0.00 0.00 0.00 52 1014.9
20260501235541 70 0 0.0 0.0 0.00 0.00 0.00 52 1014.9
20260501235041 71 0 0.0 0.0 0.00 0.00 0.00 50 1014.9
20260501234555 71 0 0.0 0.0 0.00 0.00 0.00 49 1014.9
20260501234041 72 0 0.0 0.0 0.00 0.00 0.00 49 1014.9
20260501233541 73 0 0.0 0.0 0.00 0.00 0.00 48 1014.9
20260501233051 73 0 0.0 0.0 0.00 0.00 0.00 48 1015.0
20260501232540 74 0 0.0 0.0 0.00 0.00 0.00 48 1015.0
20260501232045 74 0 0.0 0.0 0.00 0.00 0.00 45 1015.0
20260501231549 74 0 0.0 0.0 0.00 0.00 0.00 47 1015.0
20260501231038 74 0 0.0 0.0 0.00 0.00 0.00 48 1015.1
20260501230541 74 0 0.0 0.0 0.00 0.00 0.00 48 1015.1
20260501230048 74 0 0.0 0.0 0.00 0.00 0.00 47 1015.2
20260501225539 74 0 0.0 0.0 0.00 0.00 0.00 46 1015.3
20260501225040 75 0 0.0 0.0 0.00 0.00 0.00 45 1015.4
20260501224550 76 0 0.0 0.0 0.00 0.00 0.00 43 1015.5
20260501224038 76 0 0.0 0.0 0.00 0.00 0.00 43 1015.6
20260501223538 77 0 0.0 0.0 0.00 0.00 0.00 42 1015.7
20260501223102 79 0 0.0 0.0 0.00 0.00 0.00 41 1015.7
20260501222541 79 0 0.0 0.0 0.00 0.00 0.00 41 1015.7
20260501222038 78 0 0.0 0.0 0.00 0.00 0.00 41 1015.6
20260501221555 79 0 0.0 0.0 0.00 0.00 0.00 39 1015.6
20260501221040 80 0 0.0 0.0 0.00 0.00 0.00 38 1015.6
20260501220538 80 0 0.0 0.0 0.00 0.00 0.00 37 1015.7